Location: Unspecified
(0.0000°N, 0.0000°E)
Time: 15:15:35
(UTC+00:00)

STARLINK-37000 - Pass Details

Date: 04 March 2026
Orbit: 264 x 265 km, 53.2° (Epoch: 6 March)

Event Time Altitude Azimuth Distance (km) Brightness Sun altitude
Rises 19:01:14 0° 218° (SW) 1,832 6.0 -12.3°
Reaches altitude 10° 19:03:06 10° 221° (SW) 1,032 4.8 -12.8°
Maximum altitude 19:05:21 62° 303° (WNW) 291 1.4 -13.3°
Enters shadow 19:06:42 21° 21° (NNE) 654 2.8 -13.7°
